StationID,Date,MaxTemp,MinTemp,Precipitation,Snowfall,SnowDepth
"USC00408238","2008-07-01",80.06,57.02,0.00,0.00,
"USC00408238","2008-07-02",86.00,57.02,0.00,0.00,0.00
"USC00408238","2008-07-03",89.06,60.08,0.00,0.00,0.00
"USC00408238","2008-07-04",89.96,69.08,0.00,0.00,0.00
"USC00408238","2008-07-05",89.96,69.08,114.00,0.00,0.00
"USC00408238","2008-07-06",91.04,64.94,0.00,0.00,0.00
"USC00408238","2008-07-07",91.04,64.04,0.00,0.00,0.00
"USC00408238","2008-07-08",87.98,69.98,0.00,0.00,0.00
"USC00408238","2008-07-09",95.00,71.96,0.00,0.00,0.00
"USC00408238","2008-07-10",89.06,69.98,508.00,0.00,0.00
"USC00408238","2008-07-11",87.98,68.00,0.00,0.00,0.00
"USC00408238","2008-07-12",93.92,71.06,0.00,0.00,0.00
"USC00408238","2008-07-13",95.00,69.98,0.00,0.00,0.00
"USC00408238","2008-07-14",84.92,59.00,0.00,0.00,0.00
"USC00408238","2008-07-15",84.92,60.08,254.00,0.00,0.00
"USC00408238","2008-07-16",87.98,60.08,0.00,0.00,0.00
"USC00408238","2008-07-17",89.06,60.98,0.00,0.00,0.00
"USC00408238","2008-07-18",91.04,64.94,0.00,0.00,0.00
"USC00408238","2008-07-19",91.04,64.94,0.00,0.00,0.00
"USC00408238","2008-07-20",93.02,69.08,0.00,0.00,0.00
"USC00408238","2008-07-21",95.00,71.06,0.00,0.00,0.00
"USC00408238","2008-07-22",96.98,71.06,0.00,0.00,0.00
"USC00408238","2008-07-23",89.96,71.96,0.00,0.00,0.00
"USC00408238","2008-07-24",87.08,57.92,0.00,0.00,0.00
"USC00408238","2008-07-25",86.00,69.08,178.00,0.00,0.00
"USC00408238","2008-07-26",84.92,69.98,142.00,0.00,0.00
"USC00408238","2008-07-27",,,0.00,0.00,0.00
"USC00408238","2008-07-28",,,0.00,0.00,0.00
"USC00408238","2008-07-29",96.08,69.98,0.00,0.00,0.00
"USC00408238","2008-07-30",102.92,80.96,0.00,0.00,0.00
"USC00408238","2008-07-31",93.92,71.96,208.00,0.00,0.00
"USC00408238","2008-08-01",89.06,60.98,15.00,0.00,0.00
"USC00408238","2008-08-02",93.92,71.96,0.00,0.00,0.00
"USC00408238","2008-08-03",93.92,66.02,0.00,0.00,0.00
"USC00408238","2008-08-04",91.94,62.96,0.00,0.00,0.00
"USC00408238","2008-08-05",100.04,69.08,0.00,0.00,0.00
"USC00408238","2008-08-06",96.98,71.96,0.00,0.00,0.00
"USC00408238","2008-08-07",,,0.00,0.00,0.00
"USC00408238","2008-08-08",98.96,60.98,0.00,0.00,0.00
"USC00408238","2008-08-09",84.02,57.92,0.00,0.00,0.00
"USC00408238","2008-08-10",87.98,59.00,0.00,0.00,0.00
"USC00408238","2008-08-11",87.08,60.08,0.00,0.00,0.00
"USC00408238","2008-08-12",87.98,55.94,0.00,0.00,0.00
"USC00408238","2008-08-13",84.92,64.04,0.00,0.00,0.00
"USC00408238","2008-08-14",87.98,62.06,0.00,0.00,0.00
"USC00408238","2008-08-15",87.08,62.06,0.00,0.00,0.00
"USC00408238","2008-08-16",,,0.00,0.00,0.00
"USC00408238","2008-08-17",,,0.00,0.00,0.00
"USC00408238","2008-08-18",,,0.00,0.00,0.00
"USC00408238","2008-08-19",93.02,55.04,0.00,0.00,0.00
"USC00408238","2008-08-20",91.04,62.96,0.00,0.00,0.00
"USC00408238","2008-08-21",93.92,69.08,3.00,0.00,0.00
"USC00408238","2008-08-22",91.94,68.00,0.00,0.00,0.00
"USC00408238","2008-08-23",93.92,68.00,0.00,0.00,0.00
"USC00408238","2008-08-24",89.06,66.92,0.00,0.00,0.00
"USC00408238","2008-08-25",93.92,66.92,165.00,0.00,0.00
"USC00408238","2008-08-26",82.04,68.00,244.00,0.00,0.00
"USC00408238","2008-08-27",78.08,69.08,5.00,0.00,0.00
"USC00408238","2008-08-28",,,0.00,0.00,0.00
"USC00408238","2008-08-29",,,0.00,0.00,0.00
"USC00408238","2008-08-30",89.96,64.04,0.00,0.00,0.00
"USC00408238","2008-08-31",,,0.00,0.00,0.00
"USC00408238","2008-09-01",,,0.00,0.00,0.00
"USC00408238","2008-09-02",,,0.00,0.00,0.00
"USC00408238","2008-09-03",93.92,66.92,0.00,0.00,0.00
"USC00408238","2008-09-04",93.92,66.92,0.00,0.00,0.00
"USC00408238","2008-09-05",84.92,69.98,226.00,0.00,0.00
"USC00408238","2008-09-06",78.08,64.94,107.00,0.00,0.00
"USC00408238","2008-09-07",86.00,57.02,5.00,0.00,0.00
"USC00408238","2008-09-08",86.00,57.02,0.00,0.00,0.00
"USC00408238","2008-09-09",91.04,69.98,0.00,0.00,0.00
"USC00408238","2008-09-10",91.04,64.04,0.00,0.00,0.00
"USC00408238","2008-09-11",87.98,69.08,0.00,0.00,0.00
"USC00408238","2008-09-12",89.06,69.08,0.00,0.00,0.00
"USC00408238","2008-09-13",93.02,73.04,0.00,0.00,0.00
"USC00408238","2008-09-14",91.04,73.94,0.00,0.00,0.00
"USC00408238","2008-09-15",77.00,57.92,0.00,0.00,0.00
"USC00408238","2008-09-16",75.02,53.06,0.00,0.00,0.00
"USC00408238","2008-09-17",75.02,53.06,0.00,0.00,0.00
"USC00408238","2008-09-18",84.92,53.06,0.00,0.00,0.00
"USC00408238","2008-09-19",84.92,53.96,51.00,0.00,0.00
"USC00408238","2008-09-20",82.04,57.92,3.00,0.00,0.00
"USC00408238","2008-09-21",86.00,59.00,0.00,0.00,0.00
"USC00408238","2008-09-22",89.06,59.00,36.00,0.00,0.00
"USC00408238","2008-09-23",89.06,55.94,0.00,0.00,0.00
"USC00408238","2008-09-24",87.98,51.98,0.00,0.00,0.00
"USC00408238","2008-09-25",84.92,48.92,0.00,0.00,0.00
"USC00408238","2008-09-26",84.92,48.02,0.00,0.00,0.00
"USC00408238","2008-09-27",82.94,57.02,0.00,0.00,0.00
"USC00408238","2008-09-28",84.02,57.02,0.00,0.00,0.00
"USC00408238","2008-09-29",84.02,51.08,0.00,0.00,0.00
"USC00408238","2008-09-30",86.00,60.98,3.00,0.00,0.00
"USC00408238","2008-10-01",75.92,46.94,0.00,0.00,0.00
"USC00408238","2008-10-02",71.96,41.00,0.00,0.00,0.00
"USC00408238","2008-10-03",71.96,39.92,0.00,0.00,0.00
"USC00408238","2008-10-04",75.92,42.98,0.00,0.00,0.00
"USC00408238","2008-10-05",86.00,51.08,0.00,0.00,0.00
"USC00408238","2008-10-06",86.00,53.06,0.00,0.00,0.00
"USC00408238","2008-10-07",87.08,46.94,0.00,0.00,0.00
"USC00408238","2008-10-08",71.96,62.06,508.00,0.00,0.00
"USC00408238","2008-10-09",78.08,55.94,86.00,0.00,0.00
"USC00408238","2008-10-10",78.08,51.08,3.00,0.00,0.00
"USC00408238","2008-10-11",82.94,59.00,0.00,0.00,0.00
"USC00408238","2008-10-12",82.94,55.94,0.00,0.00,0.00
"USC00408238","2008-10-13",86.00,55.94,0.00,0.00,0.00
"USC00408238","2008-10-14",82.94,62.06,0.00,0.00,0.00
"USC00408238","2008-10-15",84.02,57.02,0.00,0.00,0.00
"USC00408238","2008-10-16",82.94,60.08,0.00,0.00,0.00
"USC00408238","2008-10-17",60.98,50.00,61.00,0.00,0.00
"USC00408238","2008-10-18",66.92,42.98,3.00,0.00,0.00
"USC00408238","2008-10-19",66.92,35.96,0.00,0.00,0.00
"USC00408238","2008-10-20",66.92,37.04,3.00,0.00,0.00
"USC00408238","2008-10-21",71.06,44.96,0.00,0.00,0.00
"USC00408238","2008-10-22",64.04,35.96,0.00,0.00,0.00
"USC00408238","2008-10-23",69.08,39.92,0.00,0.00,0.00
"USC00408238","2008-10-24",,,,0.00,0.00
"USC00408238","2008-10-25",55.94,44.06,,0.00,0.00
"USC00408238","2008-10-26",,,0.00,0.00,0.00
"USC00408238","2008-10-27",,,0.00,0.00,0.00
"USC00408238","2008-10-28",73.04,33.98,0.00,0.00,0.00
"USC00408238","2008-10-29",51.08,28.94,0.00,0.00,0.00
"USC00408238","2008-10-30",66.92,30.02,0.00,0.00,0.00
"USC00408238","2008-10-31",66.92,33.08,0.00,0.00,0.00
"USC00408238","2008-11-01",71.96,35.96,0.00,0.00,0.00
"USC00408238","2008-11-02",75.02,35.06,0.00,0.00,0.00
"USC00408238","2008-11-03",75.92,37.04,0.00,0.00,0.00
"USC00408238","2008-11-04",75.02,37.94,0.00,0.00,0.00
"USC00408238","2008-11-05",75.92,37.04,0.00,0.00,0.00
"USC00408238","2008-11-06",77.00,37.04,0.00,0.00,0.00
"USC00408238","2008-11-07",71.06,35.06,0.00,0.00,0.00
"USC00408238","2008-11-08",71.06,35.06,0.00,0.00,0.00
"USC00408238","2008-11-09",75.92,37.04,0.00,0.00,0.00
"USC00408238","2008-11-10",66.92,35.06,0.00,0.00,0.00
"USC00408238","2008-11-11",59.00,39.92,0.00,0.00,0.00
"USC00408238","2008-11-12",60.08,26.96,178.00,0.00,0.00
"USC00408238","2008-11-13",55.94,48.92,48.00,0.00,0.00
"USC00408238","2008-11-14",62.06,48.02,10.00,0.00,0.00
"USC00408238","2008-11-15",64.04,44.96,97.00,0.00,0.00
"USC00408238","2008-11-16",,,0.00,0.00,0.00
"USC00408238","2008-11-17",,,0.00,0.00,0.00
"USC00408238","2008-11-18",48.02,26.96,0.00,0.00,0.00
"USC00408238","2008-11-19",42.08,21.02,0.00,0.00,0.00
"USC00408238","2008-11-20",46.04,28.04,0.00,0.00,0.00
"USC00408238","2008-11-21",53.06,26.96,8.00,0.00,0.00
"USC00408238","2008-11-22",35.96,15.98,0.00,0.00,0.00
"USC00408238","2008-11-23",,,,0.00,0.00
"USC00408238","2008-11-24",,,,0.00,0.00
"USC00408238","2008-11-25",55.04,21.92,,0.00,0.00
"USC00408238","2008-11-26",46.04,23.00,0.00,0.00,0.00
"USC00408238","2008-11-27",,,0.00,0.00,0.00
"USC00408238","2008-11-28",,,0.00,0.00,0.00
"USC00408238","2008-11-29",64.04,28.94,0.00,0.00,0.00
"USC00408238","2008-11-30",55.04,42.08,0.00,0.00,0.00
"USC00408238","2008-12-01",48.02,35.06,0.00,0.00,0.00
"USC00408238","2008-12-02",55.04,23.00,51.00,0.00,0.00
"USC00408238","2008-12-03",46.94,24.98,13.00,0.00,0.00
"USC00408238","2008-12-04",59.00,19.04,0.00,0.00,0.00
"USC00408238","2008-12-05",39.02,19.94,0.00,0.00,0.00
"USC00408238","2008-12-06",59.00,19.04,127.00,0.00,0.00
"USC00408238","2008-12-07",48.02,24.08,0.00,0.00,0.00
"USC00408238","2008-12-08",53.06,48.02,0.00,0.00,0.00
"USC00408238","2008-12-09",55.94,19.94,3.00,0.00,0.00
"USC00408238","2008-12-10",57.92,41.00,508.00,0.00,0.00
"USC00408238","2008-12-11",42.08,35.96,66.00,0.00,0.00
"USC00408238","2008-12-12",42.98,28.04,74.00,0.00,0.00
"USC00408238","2008-12-13",42.08,21.02,0.00,0.00,0.00
"USC00408238","2008-12-14",37.04,28.04,0.00,0.00,0.00
"USC00408238","2008-12-15",37.04,28.04,0.00,0.00,0.00
"USC00408238","2008-12-16",57.92,28.04,102.00,0.00,0.00
"USC00408238","2008-12-17",42.08,33.98,102.00,0.00,0.00
"USC00408238","2008-12-18",42.08,35.96,13.00,0.00,0.00
"USC00408238","2008-12-19",68.00,42.08,13.00,0.00,0.00
"USC00408238","2008-12-20",73.04,35.06,0.00,0.00,0.00
"USC00408238","2008-12-21",37.04,8.06,0.00,0.00,0.00
"USC00408238","2008-12-22",33.98,17.06,0.00,0.00,0.00
"USC00408238","2008-12-23",51.08,8.06,25.00,0.00,0.00
"USC00408238","2008-12-24",33.98,8.06,0.00,0.00,0.00
"USC00408238","2008-12-25",37.94,17.06,0.00,0.00,0.00
"USC00408238","2008-12-26",62.06,35.96,0.00,0.00,0.00
"USC00408238","2008-12-27",60.08,28.04,0.00,0.00,0.00
"USC00408238","2008-12-28",60.98,30.92,0.00,0.00,0.00
"USC00408238","2008-12-29",69.08,37.94,0.00,0.00,0.00
"USC00408238","2008-12-30",69.98,26.06,467.00,0.00,0.00
"USC00408238","2008-12-31",51.08,19.04,0.00,0.00,0.00
"USC00408238","2009-01-01",53.06,39.02,0.00,0.00,0.00
"USC00408238","2009-01-02",64.94,19.04,0.00,0.00,0.00
"USC00408238","2009-01-03",60.08,35.96,0.00,0.00,0.00
"USC00408238","2009-01-04",62.96,30.92,0.00,0.00,0.00
"USC00408238","2009-01-05",62.06,39.02,0.00,0.00,0.00
"USC00408238","2009-01-06",62.96,32.00,201.00,0.00,0.00
"USC00408238","2009-01-07",46.94,35.96,254.00,0.00,0.00
"USC00408238","2009-01-08",46.04,37.04,13.00,0.00,0.00
"USC00408238","2009-01-09",42.98,21.92,0.00,0.00,0.00
"USC00408238","2009-01-10",57.92,37.04,25.00,0.00,0.00
"USC00408238","2009-01-11",57.92,21.92,0.00,0.00,0.00
"USC00408238","2009-01-12",44.96,28.04,0.00,0.00,0.00
"USC00408238","2009-01-13",60.08,21.92,76.00,0.00,0.00
"USC00408238","2009-01-14",41.00,15.98,0.00,0.00,0.00
"USC00408238","2009-01-15",50.00,12.02,0.00,0.00,0.00
"USC00408238","2009-01-16",21.92,5.00,0.00,0.00,0.00
"USC00408238","2009-01-17",50.00,14.00,0.00,0.00,0.00
"USC00408238","2009-01-18",48.92,28.04,0.00,0.00,0.00
"USC00408238","2009-01-19",30.02,17.96,0.00,0.00,0.00
"USC00408238","2009-01-20",50.00,12.92,0.00,0.00,0.00
"USC00408238","2009-01-21",30.02,12.92,0.00,0.00,0.00
"USC00408238","2009-01-22",50.00,12.92,0.00,0.00,0.00
"USC00408238","2009-01-23",62.06,30.92,0.00,0.00,0.00
"USC00408238","2009-01-24",62.96,30.02,10.00,0.00,0.00
"USC00408238","2009-01-25",35.96,17.96,0.00,0.00,0.00
"USC00408238","2009-01-26",37.04,28.04,0.00,0.00,0.00
"USC00408238","2009-01-27",37.94,17.96,267.00,0.00,0.00
"USC00408238","2009-01-28",37.94,32.00,470.00,0.00,0.00
"USC00408238","2009-01-29",33.08,24.98,13.00,0.00,0.00
"USC00408238","2009-01-30",37.04,26.06,5.00,0.00,0.00
"USC00408238","2009-01-31",44.96,21.02,0.00,0.00,0.00
"USC00408238","2009-02-01",51.08,21.02,0.00,0.00,0.00
"USC00408238","2009-02-02",66.02,33.08,46.00,0.00,0.00
"USC00408238","2009-02-03",44.96,19.94,0.00,0.00,0.00
"USC00408238","2009-02-04",33.08,14.00,8.00,0.00,0.00
"USC00408238","2009-02-05",28.94,8.96,0.00,0.00,0.00
"USC00408238","2009-02-06",48.02,8.96,0.00,0.00,0.00
"USC00408238","2009-02-07",66.92,35.06,0.00,0.00,0.00
"USC00408238","2009-02-08",73.04,55.94,0.00,0.00,0.00
"USC00408238","2009-02-09",73.04,44.96,0.00,0.00,0.00
"USC00408238","2009-02-10",71.96,55.94,0.00,0.00,0.00
"USC00408238","2009-02-11",66.92,55.94,74.00,0.00,0.00
"USC00408238","2009-02-12",64.94,39.02,0.00,0.00,0.00
"USC00408238","2009-02-13",62.96,30.02,0.00,0.00,0.00
"USC00408238","2009-02-14",60.98,37.94,0.00,0.00,0.00
"USC00408238","2009-02-15",53.06,24.98,0.00,0.00,0.00
"USC00408238","2009-02-16",48.92,19.94,0.00,0.00,0.00
"USC00408238","2009-02-17",71.96,42.98,0.00,0.00,0.00
"USC00408238","2009-02-18",71.06,19.94,170.00,0.00,0.00
"USC00408238","2009-02-19",71.96,30.02,0.00,0.00,0.00
"USC00408238","2009-02-20",39.02,17.06,0.00,0.00,0.00
"USC00408238","2009-02-21",46.04,26.06,0.00,0.00,0.00
"USC00408238","2009-02-22",46.04,17.96,0.00,0.00,0.00
"USC00408238","2009-02-23",41.00,21.92,0.00,0.00,0.00
"USC00408238","2009-02-24",57.92,15.08,53.00,0.00,0.00
"USC00408238","2009-02-25",51.98,32.00,0.00,0.00,0.00
"USC00408238","2009-02-26",68.00,44.06,0.00,0.00,0.00
"USC00408238","2009-02-27",69.98,30.92,155.00,0.00,0.00
"USC00408238","2009-02-28",59.00,33.08,130.00,0.00,0.00
"USC00408238","2009-03-01",42.08,28.94,0.00,0.00,0.00
"USC00408238","2009-03-02",41.00,21.02,0.00,0.00,0.00
"USC00408238","2009-03-03",59.00,15.98,56.00,0.00,0.00
"USC00408238","2009-03-04",37.04,24.08,0.00,0.00,0.00
"USC00408238","2009-03-05",57.92,35.96,0.00,0.00,0.00
"USC00408238","2009-03-06",66.02,55.04,0.00,0.00,0.00
"USC00408238","2009-03-07",75.02,46.04,0.00,0.00,0.00
"USC00408238","2009-03-08",75.92,60.98,0.00,0.00,0.00
"USC00408238","2009-03-09",73.94,42.08,0.00,0.00,0.00
"USC00408238","2009-03-10",77.00,42.08,0.00,0.00,0.00
"USC00408238","2009-03-11",80.06,42.98,25.00,0.00,0.00
"USC00408238","2009-03-12",42.98,33.08,25.00,0.00,0.00
"USC00408238","2009-03-13",35.96,32.00,30.00,0.00,0.00
"USC00408238","2009-03-14",41.00,33.98,180.00,0.00,0.00
"USC00408238","2009-03-15",53.96,41.00,0.00,0.00,0.00
"USC00408238","2009-03-16",60.08,48.02,0.00,0.00,0.00
"USC00408238","2009-03-17",68.00,35.06,0.00,0.00,0.00
"USC00408238","2009-03-18",69.98,35.06,119.00,0.00,0.00
"USC00408238","2009-03-19",75.92,44.96,0.00,0.00,0.00
"USC00408238","2009-03-20",62.06,35.96,0.00,0.00,0.00
"USC00408238","2009-03-21",57.02,28.04,0.00,0.00,0.00
"USC00408238","2009-03-22",69.98,33.98,0.00,0.00,0.00
"USC00408238","2009-03-23",75.02,44.06,0.00,0.00,0.00
"USC00408238","2009-03-24",75.02,33.98,0.00,0.00,0.00
"USC00408238","2009-03-25",73.94,48.92,69.00,0.00,0.00
"USC00408238","2009-03-26",66.02,51.98,191.00,0.00,0.00
"USC00408238","2009-03-27",68.00,48.92,0.00,0.00,0.00
"USC00408238","2009-03-28",62.96,53.06,71.00,0.00,0.00
"USC00408238","2009-03-29",62.96,30.92,0.00,0.00,0.00
"USC00408238","2009-03-30",64.04,44.96,0.00,0.00,0.00
"USC00408238","2009-03-31",73.94,30.92,76.00,0.00,0.00
"USC00408238","2009-04-01",64.94,35.96,15.00,0.00,0.00
"USC00408238","2009-04-02",75.92,39.92,0.00,0.00,0.00
"USC00408238","2009-04-03",77.00,50.00,414.00,0.00,0.00
"USC00408238","2009-04-04",60.08,35.06,8.00,0.00,0.00
"USC00408238","2009-04-05",71.96,37.94,0.00,0.00,0.00
"USC00408238","2009-04-06",46.94,33.98,0.00,0.00,0.00
"USC00408238","2009-04-07",73.94,33.98,36.00,0.00,0.00
"USC00408238","2009-04-08",50.00,35.96,0.00,0.00,0.00
"USC00408238","2009-04-09",71.06,33.98,0.00,0.00,0.00
"USC00408238","2009-04-10",73.04,46.94,122.00,0.00,0.00
"USC00408238","2009-04-11",66.02,48.02,56.00,0.00,0.00
"USC00408238","2009-04-12",80.06,51.98,0.00,0.00,0.00
"USC00408238","2009-04-13",73.94,46.04,0.00,0.00,0.00
"USC00408238","2009-04-14",80.06,35.06,71.00,0.00,0.00
"USC00408238","2009-04-15",55.94,44.96,0.00,0.00,0.00
"USC00408238","2009-04-16",57.02,37.94,0.00,0.00,0.00
"USC00408238","2009-04-17",66.92,37.94,0.00,0.00,0.00
"USC00408238","2009-04-18",80.06,41.00,0.00,0.00,0.00
"USC00408238","2009-04-19",64.94,53.96,0.00,0.00,0.00
"USC00408238","2009-04-20",73.04,42.98,0.00,0.00,0.00
"USC00408238","2009-04-21",78.08,42.98,279.00,0.00,0.00
"USC00408238","2009-04-22",66.92,35.06,0.00,0.00,0.00
"USC00408238","2009-04-23",78.08,42.08,0.00,0.00,0.00
"USC00408238","2009-04-24",84.92,57.92,13.00,0.00,0.00
"USC00408238","2009-04-25",87.08,60.08,0.00,0.00,0.00
"USC00408238","2009-04-26",87.08,60.08,0.00,0.00,0.00
"USC00408238","2009-04-27",86.00,64.94,0.00,0.00,0.00
"USC00408238","2009-04-28",87.98,53.96,0.00,0.00,0.00
"USC00408238","2009-04-29",80.06,60.98,0.00,0.00,0.00
"USC00408238","2009-04-30",78.08,60.08,13.00,0.00,0.00
"USC00408238","2009-05-01",77.00,59.00,0.00,0.00,0.00
"USC00408238","2009-05-02",64.04,57.92,0.00,0.00,0.00
"USC00408238","2009-05-03",62.96,57.92,0.00,0.00,0.00
"USC00408238","2009-05-04",62.96,57.92,0.00,0.00,0.00
"USC00408238","2009-05-05",78.98,55.04,1346.00,0.00,0.00
"USC00408238","2009-05-06",71.06,55.94,155.00,0.00,0.00
"USC00408238","2009-05-07",69.98,62.06,0.00,0.00,0.00
"USC00408238","2009-05-08",82.04,60.98,241.00,0.00,0.00
"USC00408238","2009-05-09",86.00,64.94,295.00,0.00,0.00
"USC00408238","2009-05-10",71.96,66.92,0.00,0.00,0.00
"USC00408238","2009-05-11",75.02,46.04,74.00,0.00,0.00
"USC00408238","2009-05-12",78.08,59.00,0.00,0.00,0.00
"USC00408238","2009-05-13",75.92,64.04,10.00,0.00,0.00
"USC00408238","2009-05-14",84.92,59.00,0.00,0.00,0.00
"USC00408238","2009-05-15",84.02,62.96,0.00,0.00,0.00
"USC00408238","2009-05-16",84.02,66.02,163.00,0.00,0.00
"USC00408238","2009-05-17",66.92,39.02,0.00,0.00,0.00
"USC00408238","2009-05-18",73.94,39.92,0.00,0.00,0.00
"USC00408238","2009-05-19",77.00,44.06,0.00,0.00,0.00
"USC00408238","2009-05-20",80.06,39.02,142.00,0.00,0.00
"USC00408238","2009-05-21",84.02,51.98,0.00,0.00,0.00
"USC00408238","2009-05-22",84.02,64.04,0.00,0.00,0.00
"USC00408238","2009-05-23",84.02,60.08,0.00,0.00,0.00
"USC00408238","2009-05-24",80.96,66.92,0.00,0.00,0.00
"USC00408238","2009-05-25",84.02,62.06,0.00,0.00,0.00
"USC00408238","2009-05-26",84.02,64.04,0.00,0.00,0.00
"USC00408238","2009-05-27",86.00,62.96,97.00,0.00,0.00
"USC00408238","2009-05-28",84.02,64.94,46.00,0.00,0.00
"USC00408238","2009-05-29",82.94,62.06,23.00,0.00,0.00
"USC00408238","2009-05-30",78.98,53.06,0.00,0.00,0.00
"USC00408238","2009-05-31",91.04,55.04,0.00,0.00,0.00
"USC00408238","2009-06-01",91.04,62.96,0.00,0.00,0.00
"USC00408238","2009-06-02",91.04,55.04,0.00,0.00,0.00
"USC00408238","2009-06-03",87.98,64.04,0.00,0.00,0.00
"USC00408238","2009-06-04",89.06,64.04,404.00,0.00,0.00
"USC00408238","2009-06-05",68.00,55.94,13.00,0.00,0.00
"USC00408238","2009-06-06",78.08,48.92,0.00,0.00,0.00
"USC00408238","2009-06-07",87.08,62.06,0.00,0.00,0.00
"USC00408238","2009-06-08",87.08,66.92,0.00,0.00,0.00
"USC00408238","2009-06-09",87.98,55.04,0.00,0.00,0.00
"USC00408238","2009-06-10",89.06,66.02,30.00,0.00,0.00
"USC00408238","2009-06-11",91.04,73.04,0.00,0.00,0.00
"USC00408238","2009-06-12",84.02,64.94,8.00,0.00,0.00
"USC00408238","2009-06-13",84.02,64.04,0.00,0.00,0.00
"USC00408238","2009-06-14",87.08,66.02,0.00,0.00,0.00
"USC00408238","2009-06-15",87.98,66.02,0.00,0.00,0.00
"USC00408238","2009-06-16",87.98,64.94,13.00,0.00,0.00
"USC00408238","2009-06-17",87.98,68.00,140.00,0.00,0.00
"USC00408238","2009-06-18",91.94,69.98,25.00,0.00,0.00
"USC00408238","2009-06-19",91.04,69.98,0.00,0.00,0.00
"USC00408238","2009-06-20",95.00,73.04,0.00,0.00,0.00
"USC00408238","2009-06-21",93.92,75.02,0.00,0.00,0.00
"USC00408238","2009-06-22",93.92,73.04,0.00,0.00,0.00
"USC00408238","2009-06-23",95.00,69.98,15.00,0.00,0.00
"USC00408238","2009-06-24",89.96,66.02,0.00,0.00,0.00
"USC00408238","2009-06-25",91.04,66.02,0.00,0.00,0.00
"USC00408238","2009-06-26",93.02,69.98,5.00,0.00,0.00
"USC00408238","2009-06-27",93.92,71.06,51.00,0.00,0.00
"USC00408238","2009-06-28",91.94,57.92,0.00,0.00,0.00
"USC00408238","2009-06-29",91.94,64.04,0.00,0.00,0.00
"USC00408238","2009-06-30",91.94,66.02,0.00,0.00,0.00
"USC00408238","2009-07-01",93.92,57.92,0.00,0.00,0.00
"USC00408238","2009-07-02",84.02,57.92,0.00,0.00,0.00
"USC00408238","2009-07-03",89.96,60.08,0.00,0.00,0.00
"USC00408238","2009-07-04",89.96,69.08,0.00,0.00,0.00
"USC00408238","2009-07-05",87.08,69.08,0.00,0.00,0.00
"USC00408238","2009-07-06",82.94,60.98,0.00,0.00,0.00
"USC00408238","2009-07-07",89.96,57.92,3.00,0.00,0.00
"USC00408238","2009-07-08",87.98,62.96,0.00,0.00,0.00
"USC00408238","2009-07-09",87.98,62.06,0.00,0.00,0.00
"USC00408238","2009-07-10",82.94,68.00,0.00,0.00,0.00
"USC00408238","2009-07-11",89.96,66.02,0.00,0.00,0.00
"USC00408238","2009-07-12",82.04,68.00,0.00,0.00,0.00
"USC00408238","2009-07-13",84.02,60.08,0.00,0.00,0.00
"USC00408238","2009-07-14",89.06,60.08,259.00,0.00,0.00
"USC00408238","2009-07-15",91.04,66.92,5.00,0.00,0.00
"USC00408238","2009-07-16",91.94,68.00,254.00,0.00,0.00
"USC00408238","2009-07-17",86.00,71.06,3.00,0.00,0.00
"USC00408238","2009-07-18",,,,0.00,0.00
"USC00408238","2009-07-19",,,,0.00,0.00
"USC00408238","2009-07-20",,,,0.00,0.00
"USC00408238","2009-07-21",84.92,53.96,,0.00,0.00
"USC00408238","2009-07-22",84.92,66.92,152.00,0.00,0.00
"USC00408238","2009-07-23",75.02,60.98,53.00,0.00,0.00
"USC00408238","2009-07-24",86.00,62.06,0.00,0.00,0.00
"USC00408238","2009-07-25",89.06,64.94,0.00,0.00,0.00
"USC00408238","2009-07-26",89.96,69.98,0.00,0.00,0.00
"USC00408238","2009-07-27",91.04,66.92,0.00,0.00,0.00
"USC00408238","2009-07-28",91.04,66.02,102.00,0.00,0.00
"USC00408238","2009-07-29",75.02,66.92,152.00,0.00,0.00
"USC00408238","2009-07-30",86.00,69.98,3.00,0.00,0.00
"USC00408238","2009-07-31",84.02,69.98,76.00,0.00,0.00
"USC00408238","2009-08-01",,,,0.00,0.00
"USC00408238","2009-08-02",,,,0.00,0.00
"USC00408238","2009-08-03",,,,0.00,0.00
"USC00408238","2009-08-04",93.02,60.98,23.00,0.00,0.00
"USC00408238","2009-08-05",96.08,66.02,5.00,0.00,0.00
"USC00408238","2009-08-06",93.02,66.02,0.00,0.00,0.00
"USC00408238","2009-08-07",87.08,64.94,0.00,0.00,0.00
"USC00408238","2009-08-08",91.04,66.02,3.00,0.00,0.00
"USC00408238","2009-08-09",96.98,68.00,0.00,0.00,0.00
"USC00408238","2009-08-10",95.00,73.04,0.00,0.00,0.00
"USC00408238","2009-08-11",96.98,68.00,0.00,0.00,0.00
"USC00408238","2009-08-12",91.04,69.98,5.00,0.00,0.00
"USC00408238","2009-08-13",86.00,62.06,0.00,0.00,0.00
"USC00408238","2009-08-14",,,,0.00,0.00
"USC00408238","2009-08-15",,,,0.00,0.00
"USC00408238","2009-08-16",,,,0.00,0.00
"USC00408238","2009-08-17",,,,0.00,0.00
"USC00408238","2009-08-18",93.02,64.94,10.00,0.00,0.00
"USC00408238","2009-08-19",89.96,69.98,0.00,0.00,0.00
"USC00408238","2009-08-20",89.96,69.98,0.00,0.00,0.00
"USC00408238","2009-08-21",93.02,69.08,135.00,0.00,0.00
"USC00408238","2009-08-22",,,0.00,0.00,0.00
"USC00408238","2009-08-23",75.02,55.94,0.00,0.00,0.00
"USC00408238","2009-08-24",82.94,55.04,0.00,0.00,0.00
"USC00408238","2009-08-25",82.94,55.04,0.00,0.00,0.00
"USC00408238","2009-08-26",89.96,62.96,0.00,0.00,0.00
"USC00408238","2009-08-27",89.96,64.94,3.00,0.00,0.00
"USC00408238","2009-08-28",91.04,69.08,302.00,0.00,0.00
"USC00408238","2009-08-29",82.94,66.92,3.00,0.00,0.00
"USC00408238","2009-08-30",,,0.00,0.00,0.00
"USC00408238","2009-08-31",,,0.00,0.00,0.00
"USC00408238","2009-09-01",84.92,53.06,0.00,0.00,0.00
"USC00408238","2009-09-02",,,,0.00,0.00
"USC00408238","2009-09-03",84.92,53.06,,0.00,0.00
"USC00408238","2009-09-04",80.96,59.00,8.00,0.00,0.00
"USC00408238","2009-09-05",84.92,60.98,0.00,0.00,0.00
"USC00408238","2009-09-06",,,,0.00,0.00
"USC00408238","2009-09-07",,,,0.00,0.00
"USC00408238","2009-09-08",89.06,60.98,,0.00,0.00
"USC00408238","2009-09-09",84.02,62.96,0.00,0.00,0.00
"USC00408238","2009-09-10",87.08,60.08,5.00,0.00,0.00
"USC00408238","2009-09-11",87.08,62.96,0.00,0.00,0.00
"USC00408238","2009-09-12",84.92,64.94,5.00,0.00,0.00
"USC00408238","2009-09-13",82.94,55.94,0.00,0.00,0.00